Tracking 31028 objects as of 17-Jul-2025
HD Live streaming from Space Station
objects crossing your sky now

ECHOSTAR 7

Track ECHOSTAR 7 now!
ECHOSTAR 7 is classified as:


NORAD ID: 27378
Int'l Code: 2002-006A
Perigee: 35,901.5 km
Apogee: 35,924.3 km
Inclination: 3.1 °
Period: 1,442.2 minutes
Semi major axis: 42283 km
RCS: 17.7827 m2 (large)
Launch date: February 21, 2002
Source: United States (US)
Launch site: AIR FORCE EASTERN TEST RANGE (AFETR)

CONUS, Hawaii, Alaska and Puerto Rico; 32 Ku-band transponders
Your satellite tracking list
Your tracking list is empty




NASA's NSSDC Master Catalog

Two Line Element Set (TLE):
1 27378U 02006A   25198.72847020 -.00000308  00000-0  00000+0 0  9991
2 27378   3.1478  81.6030 0002703  26.7036 232.3500  0.99848284 85668
Source of the keplerian elements: AFSPC